Ketchikan, AK

10:23 AM AKST on December 07, 2016 (GMT -0900)
Ketchikan International

Weather History for PAKT - October, 2012

Change the Weather History Date:

Sunday, October 28, 2012

  Actual Average Record
Temperature  
Mean Temperature 34 °F -  
Max Temperature 39 °F 47 °F 59 °F (1958)
Min Temperature 32 °F 36 °F 23 °F (1971)
Degree Days  
Heating Degree Days 30    
Moisture  
Dew Point 20 °F    
Average Humidity 56    
Maximum Humidity 61    
Minimum Humidity 50    
Precipitation  
Precipitation 0.00 in - - ()
Sea Level Pressure  
Sea Level Pressure 29.80 in    
Wind  
Wind Speed 8 mph (WNW)    
Max Wind Speed 12 mph    
Max Gust Speed -    
Visibility 10 miles    
Events      
Averages and records for this station are not official NWS values.
T = Trace of Precipitation, MM = Missing Value Source: NWS Daily Summary

Daily Weather History Graph

Daily Weather History Graph

Search for Another Location

Airport or City:

Trip Planner

Search our weather history database for the weather conditions in past years. The results will help you decide how hot, cold, wet, or windy it might be!

Date:

Astronomy

Oct. 28, 2012 Rise Set
Actual Time 7:44 AM AKDT 5:15 PM AKDT
Civil Twilight 7:06 AM AKDT 5:53 PM AKDT
Nautical Twilight 6:23 AM AKDT 6:36 PM AKDT
Astronomical Twilight 5:40 AM AKDT 7:19 PM AKDT
Moon 4:36 PM AKDT (10/28) 6:41 AM AKDT (10/28)
Length of Visible Light 10h 47m
Length of Day
9h 30m
Waxing Gibbous, 99% of the Moon is Illuminated
Oct 28
Waxing Gibbous
Oct 29
Full
Nov 6
Last Quarter
Nov 13
New
Nov 20
First Quarter

Hourly Weather History & Observations

Time (AKDT) Temp. Windchill Dew Point Humidity Pressure Visibility Wind Dir Wind Speed Gust Speed Precip Events Conditions
12:53 AM 36.0 °F 29.6 °F 21.0 °F 55% 29.78 in 10.0 mi WNW 8.1 mph - N/A   Overcast
1:53 AM 36.0 °F 30.3 °F 21.0 °F 55% 29.78 in 10.0 mi WNW 6.9 mph - N/A   Overcast
2:53 AM 35.1 °F 27.9 °F 19.9 °F 54% 29.78 in 10.0 mi WNW 9.2 mph - N/A   Overcast
3:53 AM 34.0 °F 27.2 °F 19.9 °F 56% 29.79 in 10.0 mi NW 8.1 mph - N/A   Overcast
4:53 AM 33.1 °F 26.1 °F 19.9 °F 59% 29.79 in 10.0 mi WNW 8.1 mph - N/A   Mostly Cloudy
5:53 AM 32.0 °F 24.2 °F 19.9 °F 61% 29.80 in 10.0 mi WNW 9.2 mph - N/A   Clear
6:53 AM 32.0 °F 24.2 °F 19.0 °F 59% 29.81 in 10.0 mi WNW 9.2 mph - N/A   Scattered Clouds
7:53 AM 32.0 °F 24.8 °F 19.0 °F 59% 29.81 in 10.0 mi WNW 8.1 mph - N/A   Overcast
8:53 AM 33.1 °F 26.9 °F 19.0 °F 56% 29.83 in 10.0 mi NW 6.9 mph - N/A   Overcast
9:53 AM 34.0 °F 28.0 °F 19.9 °F 56% 29.83 in 10.0 mi NW 6.9 mph - N/A   Mostly Cloudy
10:53 AM 35.1 °F 29.3 °F 19.9 °F 54% 29.83 in 10.0 mi NW 6.9 mph - N/A   Mostly Cloudy
11:53 AM 36.0 °F 29.6 °F 21.0 °F 55% 29.83 in 10.0 mi WNW 8.1 mph - N/A   Mostly Cloudy
12:53 PM 37.0 °F 30.4 °F 19.9 °F 50% 29.83 in 10.0 mi WNW 9.2 mph - N/A   Mostly Cloudy
1:53 PM 37.9 °F 32.1 °F 21.0 °F 51% 29.82 in 10.0 mi WNW 8.1 mph - N/A   Overcast
2:53 PM 37.0 °F 31.0 °F 21.0 °F 52% 29.81 in 10.0 mi WNW 8.1 mph - N/A   Overcast
3:53 PM 37.0 °F 31.6 °F 21.0 °F 52% 29.81 in 10.0 mi NW 6.9 mph - N/A   Overcast
4:53 PM 37.0 °F 31.0 °F 21.0 °F 52% 29.80 in 10.0 mi WNW 8.1 mph - N/A   Overcast
5:53 PM 36.0 °F 30.3 °F 21.0 °F 55% 29.80 in 10.0 mi WNW 6.9 mph - N/A   Overcast
6:53 PM 34.0 °F 27.2 °F 19.9 °F 56% 29.79 in 10.0 mi WNW 8.1 mph - N/A   Partly Cloudy
7:53 PM 33.1 °F 26.1 °F 19.9 °F 59% 29.78 in 10.0 mi WNW 8.1 mph - N/A   Clear
8:53 PM 33.1 °F 24.9 °F 19.9 °F 59% 29.78 in 10.0 mi NW 10.4 mph - N/A   Clear
9:53 PM 32.0 °F 24.2 °F 19.0 °F 59% 29.76 in 10.0 mi NW 9.2 mph - N/A   Clear
10:53 PM 32.0 °F 24.2 °F 19.0 °F 59% 29.76 in 10.0 mi WNW 9.2 mph - N/A   Clear
11:53 PM 32.0 °F 23.0 °F 19.0 °F 59% 29.75 in 10.0 mi WNW 11.5 mph - N/A   Clear